Location: Newark
(41.0400°S, 62.7845°W)
Time: 19:56:07
(UTC+00:00)

ESTCUBE 1 - Visible Passes

Search period start: 24 January 2022 00:00
Search period end: 03 February 2022 00:00
Orbit: 646 x 659 km, 97.9° (Epoch: 24 January)

Date Brightness Start Highest point End Pass type
(mag) Time Alt. Az. Time Alt. Az. Time Alt. Az.
24 Jan ? 02:36:15 10° SE 02:38:55 25° ESE 02:38:55 25° ESE visible
24 Jan ? 04:13:06 10° SSW 04:16:45 27° WSW 04:16:45 27° WSW visible
25 Jan ? 03:03:10 10° SSE 03:06:29 43° SE 03:06:29 43° SE visible
25 Jan ? 04:41:24 10° SSW 04:43:59 15° WSW 04:44:19 15° WSW visible
26 Jan ? 03:30:27 10° S 03:34:03 52° S 03:34:03 52° S visible
27 Jan ? 02:21:53 10° SE 02:23:46 18° ESE 02:23:46 18° ESE visible
27 Jan ? 03:58:02 10° S 04:01:36 35° SW 04:01:36 35° SW visible
28 Jan ? 02:48:33 10° SSE 02:51:19 30° SE 02:51:19 30° SE visible
28 Jan ? 04:25:59 10° SSW 04:29:09 20° WSW 04:29:09 20° WSW visible
29 Jan ? 03:15:39 10° SSE 03:18:52 45° SSE 03:18:52 45° SSE visible
29 Jan ? 04:54:57 10° SW 04:56:21 11° WSW 04:56:42 11° WSW visible
30 Jan ? 02:07:49 10° SE 02:08:35 12° ESE 02:08:35 12° ESE visible
30 Jan ? 03:43:04 10° S 03:46:25 41° SSW 03:46:25 41° SSW visible
31 Jan ? 02:34:02 10° SE 02:36:07 21° ESE 02:36:07 21° ESE visible
31 Jan ? 04:10:47 10° S 04:13:58 27° SW 04:13:58 27° SW visible
01 Feb ? 03:00:55 10° SSE 03:03:40 33° SE 03:03:40 33° SE visible
01 Feb ? 04:39:01 10° SSW 04:41:30 16° WSW 04:41:30 16° WSW visible
02 Feb ? 03:28:10 10° S 03:31:12 41° S 03:31:12 41° S visible
